Location: Betz
(49.1556°N, 2.9558°E)
Time: 03:48:45
(UTC+00:00)

Nadezhda 1 Rocket - Pass Details

Date: 18 September 2019
Orbit: 942 x 1005 km, 83.0° (Epoch: 18 October)

Event Time Altitude Azimuth Distance (km) Brightness Sun altitude
Rises 19:29:34 0° 198° (SSW) 3,597 6.9 -15.8°
Reaches altitude 10° 19:32:05 10° 202° (SSW) 2,654 6.3 -16.2°
Maximum altitude 19:38:04 62° 283° (WNW) 1,061 4.5 -17.1°
Drops below altitude 10° 19:44:07 10° 4° (N) 2,680 6.6 -18.0°
Sets 19:46:40 0° 8° (N) 3,635 7.2 -18.3°
